Weather History for Olean, NY

Change the Weather History Date:

Tuesday, January 7, 2014

  Actual Average (KBFD) Record (KBFD)
Temperature  
Mean Temperature -8 °F 21 °F  
Max Temperature -2 °F 29 °F 58 °F (1998)
Min Temperature -14 °F 14 °F -15 °F (2014)
Degree Days  
Heating Degree Days 73 38  
Month to date heating degree days 266  
Since 1 July heating degree days 3322  
Cooling Degree Days 0 0  
Month to date cooling degree days 0  
Year to date cooling degree days 0  
Moisture  
Dew Point -16 °F    
Average Humidity 69    
Maximum Humidity 78    
Minimum Humidity 59    
Precipitation  
Precipitation 0.00 in 0.11 in 0.87 in (1979)
Month to date precipitation 0.81  
Year to date precipitation 0.81  
Sea Level Pressure  
Sea Level Pressure 29.94 in    
Wind  
Wind Speed 11 mph (WSW)    
Max Wind Speed 16 mph    
Max Gust Speed 29 mph    
Visibility 8 miles    
Events      
T = Trace of Precipitation, MM = Missing Value Source: NWS Daily Summary

Daily Weather History Graph

Daily Weather History Graph

Search for Another Location

Airport:

Trip Planner

Search our weather history database for the weather conditions in past years. The results will help you decide how hot, cold, wet, or windy it might be!

Date:

Astronomy

Jan. 07, 2014 Rise Set
Actual Time 7:42 AM EST 4:57 PM EST
Civil Twilight 7:10 AM EST 5:29 PM EST
Nautical Twilight 6:35 AM EST 6:04 PM EST
Astronomical Twilight 6:01 AM EST 6:38 PM EST
Moon 11:21 AM EST (1/7) No Moon Set
Length of Visible Light 10h 18m
Length of Day
9h 15m
Waxing Crescent, 45% of the Moon is Illuminated
Jan 7
Waxing Crescent
Jan 7
First Quarter
Jan 15
Full
Jan 24
Last Quarter
Jan 30
New

Hourly Weather History & Observations

Time (EST) Temp. Windchill Dew Point Humidity Pressure Visibility Wind Dir Wind Speed Gust Speed Precip Events Conditions
12:15 AM -9.4 °F -25.6 °F -16.6 °F 71% 29.75 in 7.0 mi WSW 8.1 mph 25.3 mph N/A   Overcast
12:35 AM -9.4 °F -27.9 °F -18.4 °F 65% 29.76 in 10.0 mi West 10.4 mph 23.0 mph N/A   Overcast
12:55 AM -9.4 °F -29.8 °F -18.4 °F 65% 29.77 in 10.0 mi WSW 12.7 mph 23.0 mph N/A   Overcast
1:15 AM -11.2 °F -33.7 °F -18.4 °F 70% 29.77 in 7.0 mi West 15.0 mph 23.0 mph N/A   Overcast
1:35 AM -11.2 °F -29.0 °F -18.4 °F 70% 29.78 in 7.0 mi WSW 9.2 mph 19.6 mph N/A   Overcast
1:55 AM -13.0 °F -31.3 °F -18.4 °F 77% 29.78 in 7.0 mi WSW 9.2 mph 26.5 mph N/A   Overcast
2:15 AM -13.0 °F -30.0 °F -18.4 °F 77% 29.80 in 10.0 mi WSW 8.1 mph 20.7 mph N/A   Overcast
2:35 AM -13.0 °F -32.4 °F -20.2 °F 70% 29.81 in 7.0 mi WSW 10.4 mph 21.9 mph N/A   Overcast
2:55 AM -13.0 °F -33.4 °F -20.2 °F 70% 29.82 in 7.0 mi WSW 11.5 mph 20.7 mph N/A   Overcast
3:15 AM -13.0 °F -32.4 °F -20.2 °F 70% 29.82 in 5.0 mi WSW 10.4 mph 26.5 mph N/A   Haze
3:35 AM -13.0 °F -32.4 °F -20.2 °F 70% 29.82 in 5.0 mi West 10.4 mph 28.8 mph N/A   Haze
3:55 AM -13.0 °F -34.3 °F -20.2 °F 70% 29.83 in 7.0 mi WSW 12.7 mph 21.9 mph N/A   Overcast
4:15 AM -13.0 °F -34.3 °F -20.2 °F 70% 29.83 in 10.0 mi WSW 12.7 mph 20.7 mph N/A   Overcast
4:35 AM -13.0 °F -30.0 °F -20.2 °F 70% 29.83 in 10.0 mi WSW 8.1 mph 19.6 mph N/A   Overcast
4:55 AM -13.0 °F -36.8 °F -22.0 °F 64% 29.83 in 10.0 mi WSW 16.1 mph 27.6 mph N/A   Overcast
5:15 AM -13.0 °F -34.3 °F -20.2 °F 70% 29.83 in 10.0 mi WSW 12.7 mph 20.7 mph N/A   Overcast
5:35 AM -13.0 °F -35.2 °F -20.2 °F 70% 29.83 in 10.0 mi WSW 13.8 mph 26.5 mph N/A   Overcast
5:55 AM -13.0 °F -30.0 °F -20.2 °F 70% 29.84 in 10.0 mi WSW 8.1 mph 24.2 mph N/A   Overcast
6:15 AM -13.0 °F -31.3 °F -20.2 °F 70% 29.84 in 10.0 mi WSW 9.2 mph 20.7 mph N/A   Overcast
6:35 AM -14.8 °F -34.6 °F -22.0 °F 70% 29.85 in 10.0 mi SW 10.4 mph 20.7 mph N/A   Overcast
6:55 AM -14.8 °F -33.5 °F -22.0 °F 70% 29.85 in 7.0 mi WSW 9.2 mph 24.2 mph N/A   Overcast
7:15 AM -14.8 °F -32.2 °F -22.0 °F 70% 29.86 in 10.0 mi WSW 8.1 mph 24.2 mph N/A   Mostly Cloudy
7:35 AM -14.8 °F -35.6 °F -22.0 °F 70% 29.88 in 7.0 mi WSW 11.5 mph 18.4 mph N/A   Overcast
7:55 AM -14.8 °F -34.6 °F -22.0 °F 70% 29.89 in 5.0 mi WSW 10.4 mph 19.6 mph N/A   Haze
8:15 AM -14.8 °F -34.6 °F -20.2 °F 77% 29.90 in 5.0 mi WSW 10.4 mph 19.6 mph N/A   Haze
8:35 AM -13.0 °F -30.0 °F -20.2 °F 70% 29.91 in 5.0 mi WSW 8.1 mph 19.6 mph N/A   Haze
8:55 AM -13.0 °F -32.4 °F -20.2 °F 70% 29.92 in 7.0 mi WSW 10.4 mph 19.6 mph N/A   Overcast
9:15 AM -13.0 °F -36.8 °F -20.2 °F 70% 29.92 in 7.0 mi WSW 16.1 mph 23.0 mph N/A   Overcast
9:35 AM -11.2 °F -30.1 °F -20.2 °F 64% 29.94 in 7.0 mi WSW 10.4 mph 21.9 mph N/A   Overcast
9:55 AM -11.2 °F -30.1 °F -18.4 °F 70% 29.94 in 4.0 mi WSW 10.4 mph 21.9 mph N/A   Haze
10:15 AM -9.4 °F -31.4 °F -18.4 °F 65% 29.94 in 5.0 mi SW 15.0 mph 19.6 mph N/A   Haze
10:35 AM -9.4 °F -29.8 °F -18.4 °F 65% 29.94 in 5.0 mi WSW 12.7 mph 20.7 mph N/A   Haze
10:55 AM -7.6 °F -26.6 °F -18.4 °F 59% 29.94 in 7.0 mi West 11.5 mph 24.2 mph N/A   Overcast
11:15 AM -7.6 °F -25.7 °F -16.6 °F 65% 29.94 in 7.0 mi WSW 10.4 mph 25.3 mph N/A   Overcast
11:35 AM -5.8 °F -26.8 °F -16.6 °F 60% 29.93 in 10.0 mi WSW 15.0 mph 24.2 mph N/A   Overcast
11:55 AM -5.8 °F -22.4 °F -16.6 °F 60% 29.93 in 7.0 mi WSW 9.2 mph 25.3 mph N/A   Overcast
12:15 PM -5.8 °F -22.4 °F -16.6 °F 60% 29.92 in 10.0 mi WSW 9.2 mph 25.3 mph N/A   Overcast
12:35 PM -5.8 °F -26.8 °F -16.6 °F 60% 29.92 in 10.0 mi West 15.0 mph 27.6 mph N/A   Overcast
12:55 PM -4.0 °F -22.1 °F -14.8 °F 60% 29.93 in 10.0 mi WSW 11.5 mph 18.4 mph N/A   Overcast
1:15 PM -4.0 °F -23.0 °F -14.8 °F 60% 29.94 in 4.0 mi WSW 12.7 mph 24.2 mph N/A   Haze
1:35 PM -4.0 °F -25.2 °F -13.0 °F 65% 29.95 in 4.0 mi WSW 16.1 mph 27.6 mph N/A   Haze
1:55 PM -4.0 °F -23.0 °F -13.0 °F 65% 29.95 in 5.0 mi WSW 12.7 mph 21.9 mph N/A   Haze
2:15 PM -4.0 °F -23.7 °F -13.0 °F 65% 29.96 in 3.0 mi WSW 13.8 mph 20.7 mph N/A   Haze
2:35 PM -4.0 °F -23.0 °F -13.0 °F 65% 29.96 in 1.8 mi SW 12.7 mph 23.0 mph N/A   Haze
2:55 PM -4.0 °F -23.0 °F -11.2 °F 71% 29.97 in 3.0 mi West 12.7 mph 21.9 mph N/A   Haze
3:15 PM -4.0 °F -23.7 °F -13.0 °F 65% 29.97 in 7.0 mi WSW 13.8 mph 25.3 mph N/A   Overcast
3:35 PM -4.0 °F -24.5 °F -13.0 °F 65% 29.97 in 10.0 mi WSW 15.0 mph 28.8 mph N/A   Overcast
3:55 PM -2.2 °F -18.9 °F -13.0 °F 60% 29.97 in 10.0 mi WSW 10.4 mph 16.1 mph N/A   Overcast
4:15 PM -4.0 °F -20.2 °F -13.0 °F 65% 29.98 in 10.0 mi WSW 9.2 mph 21.9 mph N/A   Mostly Cloudy
4:35 PM -4.0 °F -20.2 °F -13.0 °F 65% 29.99 in 10.0 mi WSW 9.2 mph - N/A   Scattered Clouds
4:55 PM -4.0 °F -20.2 °F -13.0 °F 65% 29.99 in 10.0 mi WSW 9.2 mph 19.6 mph N/A   Clear
5:15 PM -4.0 °F -21.2 °F -13.0 °F 65% 29.99 in 10.0 mi WSW 10.4 mph 18.4 mph N/A   Clear
5:35 PM -4.0 °F -21.2 °F -13.0 °F 65% 29.99 in 10.0 mi WSW 10.4 mph 17.3 mph N/A   Clear
5:55 PM -4.0 °F -17.8 °F -13.0 °F 65% 30.01 in 10.0 mi WSW 6.9 mph 17.3 mph N/A   Clear
6:15 PM -4.0 °F -22.1 °F -13.0 °F 65% 30.01 in 10.0 mi WSW 11.5 mph 21.9 mph N/A   Clear
6:35 PM -4.0 °F -23.7 °F -13.0 °F 65% 30.02 in 10.0 mi WSW 13.8 mph 24.2 mph N/A   Clear
6:55 PM -4.0 °F -23.7 °F -13.0 °F 65% 30.03 in 10.0 mi WSW 13.8 mph 23.0 mph N/A   Clear
7:15 PM -4.0 °F -20.2 °F -11.2 °F 71% 30.04 in 10.0 mi WSW 9.2 mph 16.1 mph N/A   Clear
7:35 PM -4.0 °F -20.2 °F -11.2 °F 71% 30.05 in 10.0 mi WSW 9.2 mph 17.3 mph N/A   Scattered Clouds
7:55 PM -4.0 °F -20.2 °F -11.2 °F 71% 30.06 in 10.0 mi West 9.2 mph 17.3 mph N/A   Overcast
8:15 PM -4.0 °F -22.1 °F -9.4 °F 78% 30.06 in 10.0 mi WSW 11.5 mph 20.7 mph N/A   Overcast
8:35 PM -4.0 °F -19.0 °F -9.4 °F 78% 30.07 in 7.0 mi WSW 8.1 mph 26.5 mph N/A   Overcast
8:55 PM -4.0 °F -21.2 °F -9.4 °F 78% 30.08 in 10.0 mi WSW 10.4 mph 20.7 mph N/A   Overcast
9:15 PM -4.0 °F -23.0 °F -9.4 °F 78% 30.08 in 10.0 mi WSW 12.7 mph 19.6 mph N/A   Mostly Cloudy
9:35 PM -4.0 °F -21.2 °F -9.4 °F 78% 30.08 in 10.0 mi WSW 10.4 mph 17.3 mph N/A   Scattered Clouds
9:55 PM -4.0 °F -21.2 °F -9.4 °F 78% 30.09 in 10.0 mi WSW 10.4 mph 20.7 mph N/A   Mostly Cloudy
10:15 PM -4.0 °F -21.2 °F -9.4 °F 78% 30.10 in 10.0 mi West 10.4 mph 24.2 mph N/A   Mostly Cloudy
10:35 PM -4.0 °F -22.1 °F -9.4 °F 78% 30.10 in 10.0 mi West 11.5 mph 27.6 mph N/A   Overcast
10:55 PM -4.0 °F -21.2 °F -9.4 °F 78% 30.10 in 10.0 mi West 10.4 mph 25.3 mph N/A   Overcast
11:15 PM -4.0 °F -23.0 °F -9.4 °F 78% 30.11 in 10.0 mi WSW 12.7 mph 25.3 mph N/A   Overcast
11:35 PM -4.0 °F -22.1 °F -9.4 °F 78% 30.11 in 7.0 mi WSW 11.5 mph 21.9 mph N/A   Overcast
11:55 PM -4.0 °F -19.0 °F -9.4 °F 78% 30.11 in 10.0 mi WSW 8.1 mph 19.6 mph N/A   Overcast